Location: Bruderhein
(53.8035°N, 112.9265°W)
Time: 14:41:10
(UTC+00:00)

deb Delta 139 - Pass Details

Date: 07 December 2023
Orbit: 731 x 794 km, 98.6° (Epoch: 01 March)

Event Time Altitude Azimuth Distance (km) Brightness Sun altitude
Rises 14:25:13 0° 18° (NNE) 3,195 ? -9.5°
Reaches altitude 10° 14:27:35 10° 22° (NNE) 2,260 ? -9.2°
Maximum altitude 14:32:27 57° 101° (ESE) 868 ? -8.5°
Drops below altitude 10° 14:37:16 10° 181° (S) 2,228 ? -7.9°
Sets 14:39:34 0° 185° (S) 3,146 ? -7.6°
